This demonstration page uses our WeatherBlox Daily Observations layout. Learn more.

Left ArrowRight Arrow

Hourly Observations for June 6, 2021

Temp ( °F °C ) Dew Point ( °F °C ) Humidity (%) Winds ( mph kmh ) Pressure ( in mb ) Visibility ( mi km ) Precip ( " mm )
12:53 am 00:53 Clear 59 15 35 1.7 41 41 WNW 16 26 29.65 1004 10 16 N/A
1:53 am 01:53 Mostly Clear 57 13.9 35 1.7 44 44 W 13 20 29.65 1004 10 16 N/A
2:53 am 02:53 Clear 54 12.2 35 1.7 49 49 W 12 19 29.66 1005 10 16 N/A
3:53 am 03:53 Clear 50 10 35 1.7 57 57 WNW 9 15 29.67 1005 10 16 N/A
4:53 am 04:53 Mostly Clear 49 9.4 35 1.7 59 59 SW 13 20 29.68 1005 10 16 N/A
5:53 am 05:53 Sunny 48 8.9 34 1.1 58 58 SW 9 15 29.70 1006 10 16 N/A
6:53 am 06:53 Cloudy 53 11.7 34 1.1 48 48 SW 17 28 29.73 1007 10 16 N/A
7:53 am 07:53 Sunny 56 13.3 33 0.6 42 42 WSW 22 35 29.73 1007 10 16 N/A
8:53 am 08:53 Sunny 60 15.6 29 -1.7 31 31 W 30 48 29.73 1007 10 16 N/A
9:53 am 09:53 Mostly Sunny 61 16.1 29 -1.7 30 30 W 28 44 29.74 1007 10 16 N/A
10:53 am 10:53 Mostly Cloudy 64 17.8 31 -0.6 29 29 W 21 33 29.74 1007 10 16 N/A
11:53 am 11:53 Mostly Cloudy 65 18.3 30 -1.1 27 27 W 25 41 29.75 1008 10 16 N/A
12:53 pm 12:53 Mostly Cloudy 68 20 31 -0.6 25 25 W 22 35 29.74 1007 10 16 N/A
1:53 pm 13:53 Partly Cloudy 68 20 31 -0.6 25 25 W 18 30 29.73 1007 10 16 N/A
2:53 pm 14:53 Partly Cloudy 69 20.6 31 -0.6 24 24 W 16 26 29.72 1006 10 16 N/A
3:53 pm 15:53 Mostly Sunny 69 20.6 30 -1.1 23 23 W 13 20 29.71 1006 10 16 N/A
4:53 pm 16:53 Sunny 69 20.6 29 -1.7 22 22 W 13 20 29.69 1006 10 16 N/A
5:53 pm 17:53 Sunny 68 20 28 -2.2 22 22 VRB 7 11 29.68 1005 10 16 N/A
6:53 pm 18:53 Sunny 66 18.9 28 -2.2 24 24 S 6 9 29.67 1005 10 16 N/A
7:53 pm 19:53 Sunny 65 18.3 30 -1.1 27 27 ESE 3 6 29.66 1004 10 16 N/A
8:53 pm 20:53 Mostly Cloudy 60 15.6 37 2.8 42 42 SSW 7 11 29.69 1005 10 16 N/A
9:53 pm 21:53 Cloudy 63 17.2 27 -2.8 26 26 WSW 8 13 29.72 1007 10 16 N/A
10:53 pm 22:53 Cloudy 61 16.1 30 -1.1 31 31 WSW 16 26 29.74 1007 10 16 N/A
11:53 pm 23:53 Cloudy 58 14.4 34 1.1 41 41 SW 7 11 29.77 1008 10 16 N/A

Powered by AerisWeather